Location: Grand Rapids
(42.9630°N, 85.6680°W)
Time: 03:07:56
(UTC-04:00)

Vanguard 1 - Visible Passes

Search period start: 30 May 2024 00:00
Search period end: 09 June 2024 00:00
Orbit: 652 x 3825 km, 34.2° (Epoch: 29 May)

Date Brightness Start Highest point End Pass type
(mag) Time Alt. Az. Time Alt. Az. Time Alt. Az.
30 May 12.8 02:09:23 10° W 02:21:41 32° SSW 02:24:02 31° SSW visible
30 May13.704:52:59SSW04:52:59SSW04:36:24WSWvisible
30 May 11.4 21:48:52 10° WSW 21:56:33 54° S 22:10:43 10° ESE visible
31 May 12.1 00:08:17 10° W 00:18:39 46° SSW 00:28:10 27° SE visible
31 May 13.0 02:30:20 10° W 03:01:58 - SSE 02:40:36 26° SW visible
31 May 11.5 22:08:47 10° WSW 22:16:40 53° S 22:31:10 10° ESE visible
01 Jun 12.3 00:28:31 10° W 00:38:55 40° SSW 00:45:20 31° SSE visible
01 Jun 13.2 02:51:55 10° WSW 03:23:04 - SSE 02:57:50 18° SW visible
01 Jun 11.6 22:28:46 10° WSW 22:36:50 50° S 22:50:22 12° ESE visible
02 Jun 12.5 00:48:55 10° W 00:59:11 34° SSW 01:02:53 31° S visible
02 Jun 13.4 03:14:52 10° WSW 03:15:24 11° WSW 03:15:24 11° WSW visible
02 Jun 11.8 22:48:48 10° W 22:57:00 46° S 23:08:08 17° SE visible
03 Jun 12.7 01:09:33 10° W 01:19:26 28° SSW 01:20:40 28° SSW visible
03 Jun 11.9 23:08:55 10° W 23:17:12 40° SSW 23:26:05 21° SE visible
04 Jun 12.9 01:30:36 10° WSW 01:38:37 22° SW 01:38:37 22° SW visible
04 Jun 12.1 23:29:09 10° W 23:37:24 35° SSW 23:44:09 24° SSE visible
05 Jun 13.1 01:52:29 10° WSW 01:56:43 15° SW 01:56:43 15° SW visible
05 Jun 12.4 23:49:34 10° WSW 23:57:38 29° SSW 00:02:21 24° S visible
06 Jun 11.5 21:49:43 10° WSW 21:56:14 39° S 22:07:24 10° SE visible
07 Jun 12.6 00:10:18 10° WSW 00:17:52 23° SSW 00:20:38 21° S visible
07 Jun 11.8 22:09:51 10° WSW 22:16:22 34° SSW 22:26:25 12° SE visible
08 Jun 12.9 00:31:38 10° WSW 00:38:07 17° SSW 00:38:59 17° SSW visible
08 Jun 12.0 22:30:07 10° WSW 22:36:31 28° SSW 22:44:50 14° SSE visible
